This demonstration page uses our WeatherBlox Daily Observations layout. Learn more.

Left ArrowRight Arrow

39.29038, -76.61219

Hourly Observations for March 31, 2018

Temp ( °F °C ) Dew Point ( °F °C ) Humidity (%) Winds ( mph kmh ) Pressure ( in mb ) Visibility ( mi km ) Precip ( " mm )
12:54 am 00:54 undefined 46 7.8 30 -1.1 54 54 undefined N/A 30.16 1022 N/A 0.00 0.00
1:54 am 01:54 undefined 45 7.2 29 -1.7 54 54 undefined N/A 30.19 1022 N/A 0.00 0.00
2:54 am 02:54 undefined 44 6.7 28 -2.2 53 53 undefined N/A 30.22 1023 N/A 0.00 0.00
3:54 am 03:54 undefined 43 6.1 28 -2.2 56 56 undefined N/A 30.24 1024 N/A 0.00 0.00
4:54 am 04:54 undefined 41 5 29 -1.7 62 62 undefined N/A 30.26 1025 N/A 0.00 0.00
5:54 am 05:54 undefined 40 4.4 28 -2.2 63 63 undefined N/A 30.27 1025 N/A 0.00 0.00
6:54 am 06:54 undefined 40 4.4 27 -2.8 60 60 undefined N/A 30.29 1026 N/A 0.00 0.00
7:54 am 07:54 undefined 42 5.6 27 -2.8 55 55 undefined N/A 30.35 1028 N/A 0.00 0.00
8:54 am 08:54 undefined 45 7.2 26 -3.3 48 48 undefined N/A 30.37 1029 N/A 0.00 0.00
9:54 am 09:54 undefined 48 8.9 23 -5 37 37 undefined N/A 30.37 1028 N/A 0.00 0.00
10:54 am 10:54 undefined 50 10 21 -6.1 32 32 undefined N/A 30.38 1029 N/A 0.00 0.00
11:54 am 11:54 undefined 56 13.3 22 -5.6 27 27 undefined N/A 30.35 1028 N/A 0.00 0.00
12:54 pm 12:54 undefined 55 12.8 25 -3.9 31 31 undefined N/A 30.30 1026 N/A 0.00 0.00
1:54 pm 13:54 undefined 54 12.2 28 -2.2 37 37 undefined N/A 30.27 1025 N/A 0.00 0.00
2:54 pm 14:54 undefined 55 12.8 29 -1.7 37 37 undefined N/A 30.27 1025 N/A 0.00 0.00
3:54 pm 15:54 undefined 57 13.9 21 -6.1 25 25 undefined N/A 30.23 1024 N/A 0.00 0.00
4:54 pm 16:54 undefined 57 13.9 20 -6.7 24 24 undefined N/A 30.18 1022 N/A 0.00 0.00
5:54 pm 17:54 undefined 56 13.3 19 -7.2 24 24 undefined N/A 30.14 1021 N/A 0.00 0.00
6:54 pm 18:54 undefined 54 12.2 23 -5 30 30 undefined N/A 30.13 1020 N/A 0.00 0.00
7:54 pm 19:54 undefined 52 11.1 25 -3.9 35 35 undefined N/A 30.13 1020 N/A 0.00 0.00
8:54 pm 20:54 undefined 51 10.6 24 -4.4 35 35 undefined N/A 30.13 1020 N/A 0.00 0.00
9:54 pm 21:54 undefined 50 10 30 -1.1 46 46 undefined N/A 30.13 1020 N/A 0.00 0.00
10:54 pm 22:54 undefined 49 9.4 30 -1.1 48 48 undefined N/A 30.11 1020 N/A 0.00 0.00
11:54 pm 23:54 undefined 49 9.4 27 -2.8 43 43 undefined N/A 30.09 1019 N/A 0.00 0.00

Powered by AerisWeather